Regional Weather Roundup
Issued by NWS

Home | Current Version | Previous Version | Text Only | Print | Product List | Glossary Off
Versions: 1 2 3 4 5 6 7 8 9 10 11 12 13 14 15 16 17 18 19 20 21 22 23 24 25 26 27 28 29 30 31 32 33 34 35 36 37 38 39 40 41 42 43 44 45 46 47 48 49 50

000
ASUS43 KDTX 300610
RWRMI
MICHIGAN HOURLY REGIONAL WEATHER ROUNDUP
NATIONAL WEATHER SERVICE DETROIT/PONTIAC MI
200 AM EDT TUE JUN 30 2015

NOTE: "FAIR" INDICATES FEW OR NO CLOUDS BELOW 12,000 FEET WITH NO
SIGNIFICANT WEATHER AND/OR OBSTRUCTION TO VISIBILITY.

MIZ047>049-052>055-059>063-066>070-074>076-081>083-300700-
SOUTHEAST LOWER MICHIGAN

CITY           SKY/WX    TMP DP  RH WIND       PRES   REMARKS
ADRIAN         CLOUDY    63  59  87 CALM      29.82F
6HR MIN TEMP:  63; 6HR MAX TEMP:  66;

ALMA           CLEAR     55  54  96 CALM      29.83S
ANN ARBOR      CLOUDY    63  59  87 CALM      29.82S
BAD AXE        CLEAR     57  52  84 CALM      29.84F
CARO           CLEAR     55  55  97 CALM      29.83F
DETROIT CITY   LGT RAIN  65  59  81 SE8       29.82F
6HR MIN TEMP:  65; 6HR MAX TEMP:  69; 6HR PCP: TRACE;

DETROIT        LGT RAIN  64  60  87 CALM      29.82F
6HR MIN TEMP:  64; 6HR MAX TEMP:  69; 6HR PCP: TRACE;

FLINT          PTCLDY    60  55  83 CALM      29.83S
6HR MIN TEMP:  59; 6HR MAX TEMP:  73;

GROSSE ILE       N/A     64  61  88 E6        29.80F
HILLSDALE      CLOUDY    62  62  99 CALM      29.83S
HOWELL         MOCLDY    58  57  94 CALM      29.82F
6HR MIN TEMP:  58; 6HR MAX TEMP:  69;


CITY           SKY/WX    TMP DP  RH WIND       PRES   REMARKS
JACKSON        PTCLDY    61  57  87 CALM      29.82F
6HR MIN TEMP:  60; 6HR MAX TEMP:  66;

LAMBERTVILLE   CLOUDY    65  60  83 CALM      29.82S
6HR MIN TEMP:  64; 6HR MAX TEMP:  68;

LANSING        MOCLDY    60  57  89 CALM      29.83S
6HR MIN TEMP:  59; 6HR MAX TEMP:  71;

LAPEER         FAIR      54  52  94 CALM      29.83F
MASON          MOCLDY    59  57  92 SE5       29.82S
MONROE         CLOUDY    63  61  94 CALM      29.81S
MT. CLEMENS    CLOUDY    65  60  86 E5        29.80F
6HR MIN TEMP:  62; 6HR MAX TEMP:  68;

PONTIAC        CLOUDY    64  58  80 E3        29.81F
6HR MIN TEMP:  62; 6HR MAX TEMP:  69;

PORT HOPE        N/A     60  54  80 VRB3      29.82F
6HR MIN TEMP:  60; 6HR MAX TEMP:  73;

PORT HURON     CLOUDY    57  55  94 CALM      29.84F
TRI CITIES     CLEAR     62  55  77 S7        29.83S
6HR MIN TEMP:  62; 6HR MAX TEMP:  74;

MIDLAND        FAIR      58  54  86 CALM      29.82R
TROY           CLOUDY    66  60  78 E5        29.84F
SAGINAW HB     CLEAR     59  54  82 CALM      29.82S
$$
MIZ043>046-050>051-056>058-064>065-071>073-077>080-300700-
SOUTHWEST LOWER MICHIGAN

CITY           SKY/WX    TMP DP  RH WIND       PRES   REMARKS
BATTLE CREEK   CLEAR     62  57  83 S5        29.83S
6HR MIN TEMP:  62; 6HR MAX TEMP:  68;

BENTON HARBOR  MOCLDY    60  58  92 SE7       29.80F
6HR MIN TEMP:  60; 6HR MAX TEMP:  68;

BIG RAPIDS     CLOUDY    58  55  88 CALM      29.80F
6HR MIN TEMP:  57; 6HR MAX TEMP:  70;

COLDWATER      CLOUDY    61  59  92 CALM      29.83S
6HR MIN TEMP:  61; 6HR MAX TEMP:  64;

FREMONT        FAIR      61  59  94 CALM      29.80S
HOLLAND        CLEAR     59  57  93 SE3       29.81F
6HR MIN TEMP:  59; 6HR MAX TEMP:  72;

GRAND RAPIDS   CLEAR     58  56  93 S3        29.82S
6HR MIN TEMP:  58; 6HR MAX TEMP:  72;

IONIA          FAIR      58  57  96 CALM      29.82R
KALAMAZOO      PTCLDY    62  57  83 SE3       29.82S
6HR MIN TEMP:  60; 6HR MAX TEMP:  68;

LUDINGTON      PTCLDY    58  56  91 CALM      29.79S FOG
6HR MIN TEMP:  58; 6HR MAX TEMP:  71;

MARSHALL       CLEAR     56  55  95 CALM      29.82S FOG
MOUNT PLEASANT CLEAR     61  56  82 S3        29.81F
6HR MIN TEMP:  60; 6HR MAX TEMP:  73;

MUSKEGON       CLEAR     61  58  90 SE5       29.80S
6HR MIN TEMP:  61; 6HR MAX TEMP:  70;

SOUTH HAVEN    CLOUDY    60  58  91 SE3       29.80F
$$
MIZ016>042-300700-
NORTHERN LOWER MICHIGAN

CITY           SKY/WX    TMP DP  RH WIND       PRES   REMARKS
ALPENA         CLEAR     60  54  80 CALM      29.82S
6HR MIN TEMP:  59; 6HR MAX TEMP:  75; 6HR PCP: TRACE;

BEAVER ISLAND  MOCLDY    61  58  91 SW3       29.78F
6HR MIN TEMP:  60; 6HR MAX TEMP:  69;

BELLAIRE       CLOUDY    62  58  87 CALM      29.79S
6HR MIN TEMP:  61; 6HR MAX TEMP:  74;

CADILLAC       PTCLDY    54  53  96 CALM      29.81S
CHARLEVOIX     MOCLDY    65  56  74 CALM      29.81S
6HR MIN TEMP:  64; 6HR MAX TEMP:  67;

FRANKFORT      PTCLDY    60  54  80 CALM      29.78S
GAYLORD        CLOUDY    62  58  86 S5        29.82S
6HR MIN TEMP:  62; 6HR MAX TEMP:  75; 6HR PCP: TRACE;

GRAYLING       FOG       51  49  93 CALM      29.83S VSB 1/4
6HR MIN TEMP:  51; 6HR MAX TEMP:  72;

HARBOR SPRINGS MOCLDY    62  56  81 CALM      29.79S
HOUGHTON LAKE  CLEAR     54  53  97 E3        29.83S
6HR MIN TEMP:  54; 6HR MAX TEMP:  72;

MANISTEE       PTCLDY   N/A N/A N/A CALM      29.79S
OSCODA         CLEAR     57  53  86 CALM      29.82S
PELLSTON       CLOUDY    60  55  83 CALM      29.80S
6HR MIN TEMP:  58; 6HR MAX TEMP:  76;

ROGERS CITY    CLEAR     60  53  78 CALM      29.81S
TRAVERSE CITY  PTCLDY    62  58  86 CALM      29.77S
6HR MIN TEMP:  62; 6HR MAX TEMP:  68;

$$
MIZ007>008-015-300700-
EASTERN UPPER MICHIGAN

CITY           SKY/WX    TMP DP  RH WIND       PRES   REMARKS
KINROSS        CLEAR     61  52  72 S3        29.79S
6HR MIN TEMP:  61; 6HR MAX TEMP:  75;

MACKINAC ISLAN MOCLDY    63  55  75 SW3       29.79S
6HR MIN TEMP:  62; 6HR MAX TEMP:  73;

NEWBERRY       MOCLDY    59  57  94 SW10      29.77S
S. S. MARIE    CLOUDY    62  53  72 E5        29.79S
6HR MIN TEMP:  62; 6HR MAX TEMP:  74;

MUNISING         N/A     60  57  89 CALM      29.77R
6HR MIN TEMP:  59; 6HR MAX TEMP:  68; 6HR PCP:  0.04;

$$
MIZ004>006-011>014-085-300700-
CENTRAL UPPER MICHIGAN

CITY           SKY/WX    TMP DP  RH WIND       PRES   REMARKS
MANISTIQUE     CLOUDY    58  56  94 S5        29.77S
ESCANABA       CLOUDY    61  57  88 CALM      29.76F
6HR MIN TEMP:  61; 6HR MAX TEMP:  72;

MENOMINEE      MOCLDY    63  59  88 N6        29.75S
6HR MIN TEMP:  63; 6HR MAX TEMP:  68; 6HR PCP:  0.09;

SAWYER-GWINN   FOG       57  56  95 NE6       29.79R VSB 1/2
6HR MIN TEMP:  57; 6HR MAX TEMP:  65; 6HR PCP:  0.34;

$$
MIZ001>003-009>011-084-300700-
WESTERN UPPER MICHIGAN

CITY           SKY/WX    TMP DP  RH WIND       PRES   REMARKS
IRON MOUNTAIN  CLOUDY    61  59  93 NW3       29.78R
6HR MIN TEMP:  60; 6HR MAX TEMP:  62; 6HR PCP:  0.05;

HOUGHTON       CLOUDY    52  51  97 N16G24    29.82R
6HR MIN TEMP:  52; 6HR MAX TEMP:  62; 6HR PCP:  0.11;

COPPER HARBOR    N/A     48  46  93 N9        29.82R
6HR MIN TEMP:  47; 6HR MAX TEMP:  55; 6HR PCP:  0.15;

IRONWOOD       CLOUDY    59  59 100 N3        29.83R
$$

ABBREVIATIONS USED IN REMARKS
   TC - TEMPERATURE IN CELSIUS
  WCI - WIND CHILL INDEX
   HX - HEAT INDEX
  VSB - VISIBILITY



USA.gov is the U.S. government's official web portal to all federal, state and local government web resources and services.